Location: Kruen
(47.5000°N, 11.5000°E)
Time: 14:24:54
(UTC+01:00)

BlueWalker 3 - Pass Details

Date: 24 February 2026
Orbit: 451 x 457 km, 53.2° (Epoch: 14 March)

Event Time Altitude Azimuth Distance (km) Brightness Sun altitude
Rises 06:14:17 0° 219° (SW) 2,462 5.1 -9.1°
Reaches altitude 10° 06:16:30 10° 211° (SSW) 1,591 4.2 -8.8°
Maximum altitude 06:19:51 39° 142° (SE) 695 3.1 -8.2°
Drops below altitude 10° 06:23:14 10° 72° (ENE) 1,596 5.7 -7.6°
Sets 06:25:27 0° 64° (ENE) 2,472 6.6 -7.3°
